Regional Weather Roundup
Issued by NWS Upton, NY

Current Version | Previous Version | Text Only | Print | Product List | Glossary On
Versions: 1 2 3 4 5 6 7 8 9 10 11 12 13 14 15 16 17 18 19 20 21 22 23 24 25 26 27 28 29 30 31 32 33 34 35 36 37 38 39 40 41 42 43 44 45 46 47 48 49 50
000
ASUS41 KOKX 070208
RWROKX

REGIONAL WEATHER ROUNDUP
NATIONAL WEATHER SERVICE NEW YORK NY
1000 PM EDT MON JUL 06 2015

NOTE: "FAIR" INDICATES FEW OR NO CLOUDS BELOW 12,000 FEET WITH NO
SIGNIFICANT WEATHER AND/OR OBSTRUCTIONS TO VISIBILITY.

NYZ071-072-176-178-NJZ106-104-070300-
NEW YORK CITY METRO AREA


CITY           SKY/WX    TMP DP  RH WIND       PRES   REMARKS
CENTRAL PARK   CLOUDY    75  64  68 CALM      30.14R
LAGUARDIA APRT MOCLDY    76  64  66 SE9       30.10R
KENNEDY INTL   MOCLDY    74  66  76 SE8       30.11S
NEWARK/LIBERTY MOCLDY    75  66  73 VRB7      30.10R
BRNX BOT. GARD   N/A     73  63  68 S2        30.12R
TETERBORO      CLOUDY    76  64  66 SE7       30.09R
$$

NYZ177-179-078>081-070300-
LONG ISLAND NEW YORK

CITY           SKY/WX    TMP DP  RH WIND       PRES   REMARKS
FARMINGDALE    CLOUDY    75  64  68 SE14      30.11S
ISLIP          MOCLDY    74  64  71 S10       30.10S
SHIRLEY        CLOUDY    73  66  78 S9        30.12S
WESTHAMPTON    CLEAR     71  68  90 S6        30.13S
MONTAUK POINT  NOT AVBL
$$

NYZ052-065-067-070300-
HUDSON VALLEY

CITY           SKY/WX    TMP DP  RH WIND       PRES   REMARKS
WHITE PLAINS   MOCLDY    73  63  70 SE7       30.12R
NEWBURGH       MOCLDY    73  68  83 VRB6      30.11S HAZE
MONTGOMERY     PTCLDY    70  66  87 CALM      30.10R
POUGHKEEPSIE   CLEAR     74  65  73 CALM      30.08S
ALBANY         PTCLDY    78  66  66 S8        30.07R
$$

NJZ001-105-106-008-010-013-015-019>022-104-070300-
NEW JERSEY

CITY           SKY/WX    TMP DP  RH WIND       PRES   REMARKS
NEWARK/LIBERTY MOCLDY    75  66  73 VRB7      30.10R
TETERBORO      CLOUDY    76  64  66 SE7       30.09R
CALDWELL       CLOUDY    74  64  71 SE7       30.11R
MORRISTOWN     CLOUDY    75  70  83 CALM      30.11R
SOMERVILLE     MOCLDY    72  69  90 CALM      30.07R
SUSSEX         MOCLDY    73  66  78 VRB6      30.11R
ANDOVER        NOT AVBL
TRENTON        CLOUDY    75  70  84 S12       30.08R
MILLVILLE      MOCLDY    76  73  91 SE6       30.08R
ATLANTIC CITY  NOT AVBL
WRIGHTSTOWN    CLOUDY    74  73  97 SE5       30.06S
TOMS RIVER     CLOUDY    75  72  88 SE7       30.10S
BELMAR         PTCLDY    73  66  78 S7        30.10R
$$

PAZ047>061-062-071-070300-
EASTERN PENNSYLVANIA

CITY           SKY/WX    TMP DP  RH WIND       PRES   REMARKS
PHILADELPHIA   MOCLDY    79  71  76 SE14      30.08R
ALLENTOWN      MOCLDY    75  71  87 SE7       30.08R
SCRANTON       MOCLDY    76  67  73 CALM      30.08R
$$

CTZ002-004>006-009-010-012-RIZ004-006-007-MAZ004-011-015-070300-
SOUTHERN NEW ENGLAND
 IN CT

CITY           SKY/WX    TMP DP  RH WIND       PRES   REMARKS
BRADLEY INTL   CLEAR     73  64  73 S12       30.10S
HARTFORD       CLEAR     73  65  75 S9        30.10F
DANBURY        CLEAR     70  62  76 S5        30.13S
WTRBRY/OXFORD  CLEAR     70  61  73 CALM      30.14S
BRIDGEPORT     CLEAR     73  65  75 S3        30.11S
MERIDEN        CLEAR     72  64  76 S3        30.12R
NEW HAVEN      CLEAR     70  65  84 CALM      30.12R
CHESTER        FAIR      70  64  83 CALM      30.14S
GROTON         CLEAR     69  65  86 CALM      30.12F
WILLIMANTIC    CLEAR     71  65  81 S3        30.13R

 IN RI

CITY           SKY/WX    TMP DP  RH WIND       PRES   REMARKS
PROVIDENCE     PTCLDY    70  63  78 S5        30.13S
BLOCK ISLAND   CLEAR     70  64  83 S6        30.13F
WESTERLY       CLEAR     69  65  86 CALM      30.14S

 IN MA

CITY           SKY/WX    TMP DP  RH WIND       PRES   REMARKS
BOSTON         PTCLDY    73  64  73 S9        30.10R
WORCESTER      CLEAR     72  65  78 SW9       30.14S
WESTFIELD      CLEAR     73  65  75 S5        30.10S
PROVINCETOWN   CLEAR     66  10  11 S8        30.13S
NANTUCKET      CLEAR     65  61  87 S8        30.15S
$$

ANZ330-335-338-340-345-350-353-355-070300-
COASTAL MARINE OBSERVATIONS


STATION/POSITION TIME  SKY/WX   TEMP    WIND        PRES    VSBY  WAVE
                                AIR SEA DIR/SP/G                  HT/PER
                 (UTC)          (F)     (DEG/KT/KT) (MB)    (MI)  (FT/S)
NY HARB ENTRANCE 0150            72 71  150/ 14/ 14 1018.5          2/ 6
4S FIRE IS       0103               69                N/A           2/ 6
20S FIRE ISLAND  0150            72 71  140/ 10/ 12 1019.0          2/ 8
GREAT SOUTH BAY  0115            73 76  160/ 12/ 14   N/A
23SW MTP         0150            72 69  190/ 10/ 12 1019.4          2/ 6
HUDSON CANYON    NOT AVBL
KINGS POINT      0100            74 71  170/  4/  8 1018.6
CENTRAL LI SOUND NOT AVBL
EASTERN LI SOUND 0100            67 65  210/  4/  6   N/A
ROBBINS REEF     0100            74     150/ 15/ 17 1017.8
$$


>>>>>>>>>>>>>>>>>>>>>>>>>>>> KEY <<<<<<<<<<<<<<<<<<<<<<<<<<<
>                                                          <
>     SKY/WX - SKY CONDITION/PRESENT WEATHER               <
>     TMP    - TEMPERATURE IN FAHRENHEIT                   <
>     DP     - DEWPOINT IN FAHRENHEIT                      <
>     RH     - RELATIVE HUMIDITY IN PERCENT                <
>     WIND   - DIRECTION AND SPEED IN MPH                  <
>     PRES   - MEAN SEA LEVEL PRESSURE IN INCHES OF HG     <
>     WCI    - WIND CHILL INDEX                            <
>     VSB    - VISIBILITY IN MILES                         <
>     HX     - HEAT INDEX                                  <
>     TC     - TEMPERATURE IN CELSIUS                      <
>     VRB    - VARIABLE WIND DIRECTION                     <
>                                                          <
>>>>>>>>>>>>>>>>>>>>>>>>>>>> KEY <<<<<<<<<<<<<<<<<<<<<<<<<<<





USA.gov is the U.S. government's official web portal to all federal, state and local government web resources and services.